Hourly Data Report for October 04, 2016

All times are specified in Local Standard Time (LST). Add 1 hour to adjust for Daylight Saving Time where and when it is observed.

RANKIN INLET A
NUNAVUT

62°48'38.000" N
92°06'53.000" W
32.30 m
2303405
71083
YRT

Download Data

Hourly Data (October 2016)
Hourly Data Report for October 4, 2016
Temp Definition
°C
Dew Point Temp Definition
°C
Rel Hum Definition
%
Wind Dir Definition
10's deg

Wind Spd Definition
km/h
Visibility Definition
km
Stn Press Definition
kPa
Hmdx Definition


Wind Chill Definition


Weather Definition


TIME
00:00 Legend Double Dagger 1.4 0.7 95 31 44 16.1 99.20     Mostly Cloudy
01:00 Legend Double Dagger 0.8 -0.2 93 32 57 9.7 99.37     Fog
02:00 Legend Double Dagger 0.6 -1.3 87 32 58 16.1 99.58     LegendNANA
03:00 Legend Double Dagger 0.1 -2.1 85 33 62 16.1 99.70     Cloudy
04:00 Legend Double Dagger -0.4 -2.8 84 33 59 16.1 99.93   -9 LegendNANA
05:00 Legend Double Dagger -0.4 -3.1 82 32 54 16.1 100.10   -9 LegendNANA
06:00 Legend Double Dagger -1.0 -3.7 82 33 50 16.1 100.27   -10 Mostly Cloudy
07:00 Legend Double Dagger -1.4 -3.0 89 33 50 6.4 100.38   -10 Snow
08:00 Legend Double Dagger -0.7 -4.1 78 33 44 16.1 100.51   -9 LegendNANA
09:00 Legend Double Dagger -0.5 -4.6 74 33 53 24.1 100.64   -9 Mostly Cloudy
10:00 Legend Double Dagger -0.4 -3.3 81 31 37 24.1 100.74   -8 Snow Showers
11:00 Legend Double Dagger 0.1 -4.0 74 31 41 24.1 100.82     LegendNANA
12:00 Legend Double Dagger 0.6 -3.5 74 32 44 16.1 100.90     Mostly Cloudy
13:00 Legend Double Dagger 0.4 -4.1 72 33 46 24.1 100.96     LegendNANA
14:00 Legend Double Dagger -0.4 -5.4 69 34 49 24.1 101.06   -9 LegendNANA
15:00 Legend Double Dagger -0.6 -5.4 70 33 42 24.1 101.20   -8 Mostly Cloudy
16:00 Legend Double Dagger -1.2 -4.7 77 33 37 24.1 101.31   -9 LegendNANA
17:00 Legend Double Dagger -1.5 -5.2 76 31 37 24.1 101.43   -9 LegendNANA
18:00 Legend Double Dagger -1.8 -5.1 78 33 42 16.1 101.48   -10 Snow Showers
19:00 Legend Double Dagger -2.4 -4.1 88 31 34 6.4 101.57   -10 Snow Showers
20:00 Legend Double Dagger -2.7 -5.2 83 32 33 6.4 101.63   -10 Snow Showers
21:00 Legend Double Dagger -2.7 -4.6 87 32 27 8.1 101.70   -10 Snow Showers
22:00 Legend Double Dagger -3.0 -4.6 89 30 30 24.1 101.74   -10 Snow Showers
23:00 Legend Double Dagger -2.4 -4.0 89 31 23 16.1 101.81   -9 Snow Showers

Notes on Data Quality.

Legend

  • E = Estimated
  • M = Missing
  • NA = Not Available
  • ‡ = Partner data that is not subject to review by the National Climate Archives
Date modified: